Time,TemperatureF,DewpointF,PressureIn,WindDirection,WindDirectionDegrees,WindSpeedMPH,WindSpeedGustMPH,Humidity,HourlyPrecipIn,Conditions,Clouds,dailyrainin,SoftwareType,DateUTC
2013-10-02 00:01:00,68.3,62.9,30.00,SSW,192,0.0,1.0,83,0.00,,,0.00,VWS V14.01,2013-10-02 05:01:00,
2013-10-02 00:06:00,68.3,62.9,30.00,SSW,192,0.0,1.0,83,0.00,,,0.00,VWS V14.01,2013-10-02 05:06:00,
2013-10-02 00:11:00,68.4,63.0,30.00,SSW,192,0.0,0.0,83,0.00,,,0.00,VWS V14.01,2013-10-02 05:11:00,
2013-10-02 00:16:00,68.3,62.9,30.00,SSW,192,0.0,1.0,83,0.00,,,0.00,VWS V14.01,2013-10-02 05:16:00,
2013-10-02 00:21:00,68.3,62.9,30.00,SSW,192,0.0,0.0,83,0.00,,,0.00,VWS V14.01,2013-10-02 05:21:00,
2013-10-02 00:26:00,68.3,62.9,30.00,SSW,192,0.0,0.0,83,0.00,,,0.00,VWS V14.01,2013-10-02 05:26:00,
2013-10-02 00:31:00,68.3,62.9,30.00,SSW,192,0.0,0.0,83,0.00,,,0.00,VWS V14.01,2013-10-02 05:31:00,
2013-10-02 00:36:00,68.1,62.4,30.00,SSW,192,0.0,0.0,82,0.00,,,0.00,VWS V14.01,2013-10-02 05:36:00,
2013-10-02 00:41:00,68.2,62.5,30.00,SSW,192,0.0,2.0,82,0.00,,,0.00,VWS V14.01,2013-10-02 05:41:00,
2013-10-02 00:46:00,68.2,62.5,30.00,SSW,192,0.0,2.0,82,0.00,,,0.00,VWS V14.01,2013-10-02 05:46:00,
2013-10-02 00:51:00,68.2,62.5,30.00,SSW,192,0.0,0.0,82,0.00,,,0.00,VWS V14.01,2013-10-02 05:51:00,
2013-10-02 00:56:00,68.2,62.5,30.01,SSW,193,0.0,2.0,82,0.00,,,0.00,VWS V14.01,2013-10-02 05:56:00,
2013-10-02 01:02:00,68.2,62.5,30.00,SSW,193,3.0,3.0,82,0.00,,,0.00,VWS V14.01,2013-10-02 06:02:00,
2013-10-02 01:07:00,68.3,62.6,30.01,SSW,193,0.0,3.0,82,0.00,,,0.00,VWS V14.01,2013-10-02 06:07:00,
2013-10-02 01:12:00,68.2,62.5,30.01,SSW,193,0.0,0.0,82,0.00,,,0.00,VWS V14.01,2013-10-02 06:12:00,
2013-10-02 01:17:00,68.1,62.4,30.01,SSW,193,0.0,2.0,82,0.00,,,0.00,VWS V14.01,2013-10-02 06:17:00,
2013-10-02 01:22:00,68.0,62.3,30.01,SSW,193,0.0,0.0,82,0.00,,,0.00,VWS V14.01,2013-10-02 06:22:00,
2013-10-02 01:27:00,68.0,62.3,30.01,SSW,193,0.0,0.0,82,0.00,,,0.00,VWS V14.01,2013-10-02 06:27:00,
2013-10-02 01:32:00,68.0,62.3,30.01,SSW,193,0.0,0.0,82,0.00,,,0.00,VWS V14.01,2013-10-02 06:32:00,
2013-10-02 01:37:00,68.0,62.3,30.00,SSW,193,0.0,3.0,82,0.00,,,0.00,VWS V14.01,2013-10-02 06:37:00,
2013-10-02 01:42:00,68.0,62.3,30.01,SSW,193,0.0,0.0,82,0.00,,,0.00,VWS V14.01,2013-10-02 06:42:00,
2013-10-02 01:47:00,68.1,62.1,30.01,WSW,245,0.0,5.0,81,0.00,,,0.00,VWS V14.01,2013-10-02 06:47:00,
2013-10-02 01:52:00,68.3,62.2,30.01,SW,214,3.0,3.0,81,0.00,,,0.00,VWS V14.01,2013-10-02 06:52:00,
2013-10-02 01:57:00,68.4,62.3,30.01,WSW,246,0.0,5.0,81,0.00,,,0.00,VWS V14.01,2013-10-02 06:57:00,
2013-10-02 02:02:00,68.5,62.5,30.01,SSW,200,0.0,0.0,81,0.00,,,0.00,VWS V14.01,2013-10-02 07:02:00,
2013-10-02 02:07:00,68.5,62.5,30.02,WSW,246,0.0,6.0,81,0.00,,,0.00,VWS V14.01,2013-10-02 07:07:00,
2013-10-02 02:12:00,68.6,62.5,30.02,SW,228,0.0,0.0,81,0.00,,,0.00,VWS V14.01,2013-10-02 07:12:00,
2013-10-02 02:17:00,68.6,62.5,30.02,SW,236,0.0,5.0,81,0.00,,,0.00,VWS V14.01,2013-10-02 07:17:00,
2013-10-02 02:22:00,68.7,62.6,30.02,WSW,238,2.0,5.0,81,0.00,,,0.00,VWS V14.01,2013-10-02 07:22:00,
2013-10-02 02:27:00,68.7,62.6,30.02,SW,232,0.0,5.0,81,0.00,,,0.00,VWS V14.01,2013-10-02 07:27:00,
2013-10-02 02:32:00,68.8,62.7,30.02,WSW,238,0.0,5.0,81,0.00,,,0.00,VWS V14.01,2013-10-02 07:32:00,
2013-10-02 02:37:00,68.8,62.7,30.02,SW,232,0.0,5.0,81,0.00,,,0.00,VWS V14.01,2013-10-02 07:37:00,
2013-10-02 02:42:00,68.9,62.8,30.02,SW,236,0.0,3.0,81,0.00,,,0.00,VWS V14.01,2013-10-02 07:42:00,
2013-10-02 02:47:00,68.9,62.8,30.01,SW,223,0.0,7.0,81,0.00,,,0.00,VWS V14.01,2013-10-02 07:47:00,
2013-10-02 02:52:00,68.9,62.8,30.01,WSW,237,0.0,1.0,81,0.00,,,0.00,VWS V14.01,2013-10-02 07:52:00,
2013-10-02 02:57:00,69.0,62.9,30.01,WSW,248,2.0,7.0,81,0.00,,,0.00,VWS V14.01,2013-10-02 07:57:00,
2013-10-02 03:02:00,69.0,62.9,30.01,WSW,241,0.0,0.0,81,0.00,,,0.00,VWS V14.01,2013-10-02 08:02:00,
2013-10-02 03:07:00,69.0,62.9,30.01,WSW,247,4.0,5.0,81,0.00,,,0.00,VWS V14.01,2013-10-02 08:07:00,
2013-10-02 03:12:00,69.0,62.9,30.01,SW,229,5.0,5.0,81,0.00,,,0.00,VWS V14.01,2013-10-02 08:12:00,
2013-10-02 03:17:00,69.0,62.9,30.01,SSW,209,0.0,6.0,81,0.00,,,0.00,VWS V14.01,2013-10-02 08:17:00,
2013-10-02 03:22:00,69.0,62.9,30.01,WSW,248,5.0,5.0,81,0.00,,,0.00,VWS V14.01,2013-10-02 08:22:00,
2013-10-02 03:27:00,69.0,62.9,30.01,WSW,247,0.0,5.0,81,0.00,,,0.00,VWS V14.01,2013-10-02 08:27:00,
2013-10-02 03:32:00,69.0,62.9,30.01,WSW,254,0.0,1.0,81,0.00,,,0.00,VWS V14.01,2013-10-02 08:32:00,
2013-10-02 03:37:00,69.0,62.9,30.01,WSW,254,0.0,4.0,81,0.00,,,0.00,VWS V14.01,2013-10-02 08:37:00,
2013-10-02 03:42:00,69.1,63.0,30.01,WSW,254,0.0,1.0,81,0.00,,,0.00,VWS V14.01,2013-10-02 08:42:00,
2013-10-02 03:47:00,69.0,62.9,30.01,WSW,239,0.0,5.0,81,0.00,,,0.00,VWS V14.01,2013-10-02 08:47:00,
2013-10-02 03:52:00,69.1,62.7,30.01,SW,234,0.0,0.0,80,0.00,,,0.00,VWS V14.01,2013-10-02 08:52:00,
2013-10-02 03:57:00,69.1,62.7,30.01,SW,234,0.0,3.0,80,0.00,,,0.00,VWS V14.01,2013-10-02 08:57:00,
2013-10-02 04:02:00,69.1,62.7,30.02,SW,234,0.0,0.0,80,0.00,,,0.00,VWS V14.01,2013-10-02 09:02:00,
2013-10-02 04:07:00,69.1,62.7,30.02,SW,235,0.0,1.0,80,0.00,,,0.00,VWS V14.01,2013-10-02 09:07:00,
2013-10-02 04:12:00,69.1,62.7,30.02,SW,235,0.0,0.0,80,0.00,,,0.00,VWS V14.01,2013-10-02 09:12:00,
2013-10-02 04:17:00,69.1,62.7,30.01,SW,236,1.0,5.0,80,0.00,,,0.00,VWS V14.01,2013-10-02 09:17:00,
2013-10-02 04:22:00,69.1,62.7,30.01,SW,236,0.0,0.0,80,0.00,,,0.00,VWS V14.01,2013-10-02 09:22:00,
2013-10-02 04:27:00,69.2,62.8,30.01,SW,236,0.0,0.0,80,0.00,,,0.00,VWS V14.01,2013-10-02 09:27:00,
2013-10-02 04:32:00,69.2,62.8,30.01,SW,236,0.0,0.0,80,0.00,,,0.00,VWS V14.01,2013-10-02 09:32:00,
2013-10-02 04:37:00,69.2,62.8,30.01,SW,236,0.0,0.0,80,0.00,,,0.00,VWS V14.01,2013-10-02 09:37:00,
2013-10-02 04:42:00,69.2,62.8,30.02,SW,236,0.0,0.0,80,0.00,,,0.00,VWS V14.01,2013-10-02 09:42:00,
2013-10-02 04:47:00,69.2,62.8,30.01,SW,236,0.0,1.0,80,0.00,,,0.00,VWS V14.01,2013-10-02 09:47:00,
2013-10-02 04:52:00,69.3,62.9,30.02,SW,236,0.0,0.0,80,0.00,,,0.00,VWS V14.01,2013-10-02 09:52:00,
2013-10-02 04:57:00,69.3,62.9,30.02,SW,236,0.0,3.0,80,0.00,,,0.00,VWS V14.01,2013-10-02 09:57:00,
2013-10-02 05:02:00,69.3,62.9,30.01,SW,236,0.0,0.0,80,0.00,,,0.00,VWS V14.01,2013-10-02 10:02:00,
2013-10-02 05:07:00,69.3,62.9,30.01,SW,236,0.0,1.0,80,0.00,,,0.00,VWS V14.01,2013-10-02 10:07:00,
2013-10-02 05:12:00,69.3,62.9,30.02,SW,236,0.0,0.0,80,0.00,,,0.00,VWS V14.01,2013-10-02 10:12:00,
2013-10-02 05:17:00,69.3,62.9,30.02,SW,236,0.0,0.0,80,0.00,,,0.00,VWS V14.01,2013-10-02 10:17:00,
2013-10-02 05:22:00,69.3,62.9,30.01,SW,236,0.0,0.0,80,0.00,,,0.00,VWS V14.01,2013-10-02 10:22:00,
2013-10-02 05:27:00,69.4,63.0,30.02,SW,236,0.0,0.0,80,0.00,,,0.00,VWS V14.01,2013-10-02 10:27:00,
2013-10-02 05:32:00,69.4,63.0,30.02,SW,236,0.0,0.0,80,0.00,,,0.00,VWS V14.01,2013-10-02 10:32:00,
2013-10-02 05:37:00,69.4,63.0,30.02,SW,236,0.0,0.0,80,0.00,,,0.00,VWS V14.01,2013-10-02 10:37:00,
2013-10-02 05:42:00,69.4,63.0,30.02,SW,236,0.0,0.0,80,0.00,,,0.00,VWS V14.01,2013-10-02 10:42:00,
2013-10-02 05:47:00,69.4,63.0,30.02,SW,236,0.0,0.0,80,0.00,,,0.00,VWS V14.01,2013-10-02 10:47:00,
2013-10-02 05:52:00,69.4,63.0,30.03,SW,236,0.0,0.0,80,0.00,,,0.00,VWS V14.01,2013-10-02 10:52:00,
2013-10-02 05:57:00,69.4,63.0,30.03,SW,236,0.0,0.0,80,0.00,,,0.00,VWS V14.01,2013-10-02 10:57:00,
2013-10-02 06:02:00,69.5,63.1,30.03,SW,236,0.0,0.0,80,0.00,,,0.00,VWS V14.01,2013-10-02 11:02:00,
2013-10-02 06:07:00,69.5,63.1,30.03,SW,236,0.0,0.0,80,0.00,,,0.00,VWS V14.01,2013-10-02 11:07:00,
2013-10-02 06:12:00,69.5,63.1,30.03,SW,236,0.0,0.0,80,0.00,,,0.00,VWS V14.01,2013-10-02 11:12:00,
2013-10-02 06:17:00,69.5,63.1,30.02,SW,236,0.0,0.0,80,0.00,,,0.00,VWS V14.01,2013-10-02 11:17:00,
2013-10-02 06:22:00,69.6,63.2,30.03,SW,236,0.0,0.0,80,0.00,,,0.00,VWS V14.01,2013-10-02 11:22:00,
2013-10-02 06:27:00,69.6,63.2,30.03,SW,236,0.0,0.0,80,0.00,,,0.00,VWS V14.01,2013-10-02 11:27:00,
2013-10-02 06:32:00,69.6,63.2,30.03,SW,236,0.0,0.0,80,0.00,,,0.00,VWS V14.01,2013-10-02 11:32:00,
2013-10-02 06:37:00,69.6,63.2,30.03,SW,236,0.0,0.0,80,0.00,,,0.00,VWS V14.01,2013-10-02 11:37:00,
2013-10-02 06:42:00,69.7,63.3,30.03,SW,236,0.0,0.0,80,0.00,,,0.00,VWS V14.01,2013-10-02 11:42:00,
2013-10-02 06:47:00,69.7,63.3,30.03,SW,236,0.0,0.0,80,0.00,,,0.00,VWS V14.01,2013-10-02 11:47:00,
2013-10-02 06:52:00,69.7,63.3,30.03,SW,236,0.0,0.0,80,0.00,,,0.00,VWS V14.01,2013-10-02 11:52:00,
2013-10-02 06:57:00,69.7,63.3,30.03,SW,236,0.0,0.0,80,0.00,,,0.00,VWS V14.01,2013-10-02 11:57:00,
2013-10-02 07:02:00,69.7,63.3,30.03,SW,236,0.0,0.0,80,0.00,,,0.00,VWS V14.01,2013-10-02 12:02:00,
2013-10-02 07:07:00,69.7,63.3,30.03,SW,236,0.0,0.0,80,0.00,,,0.00,VWS V14.01,2013-10-02 12:07:00,
2013-10-02 07:12:00,69.7,63.3,30.04,SW,236,0.0,0.0,80,0.00,,,0.00,VWS V14.01,2013-10-02 12:12:00,
2013-10-02 07:17:00,69.7,63.3,30.04,SW,216,0.0,3.0,80,0.00,,,0.00,VWS V14.01,2013-10-02 12:17:00,
2013-10-02 07:22:00,69.8,63.4,30.04,SW,216,0.0,0.0,80,0.00,,,0.00,VWS V14.01,2013-10-02 12:22:00,
2013-10-02 07:27:00,69.8,63.4,30.04,SW,216,0.0,0.0,80,0.00,,,0.00,VWS V14.01,2013-10-02 12:27:00,
2013-10-02 07:32:00,69.8,63.4,30.04,SW,216,0.0,0.0,80,0.00,,,0.00,VWS V14.01,2013-10-02 12:32:00,
2013-10-02 07:37:00,69.8,63.4,30.04,SW,216,0.0,0.0,80,0.00,,,0.00,VWS V14.01,2013-10-02 12:37:00,
2013-10-02 07:42:00,69.8,63.4,30.04,SW,216,0.0,0.0,80,0.00,,,0.00,VWS V14.01,2013-10-02 12:42:00,
2013-10-02 07:47:00,69.9,63.5,30.05,SW,216,0.0,0.0,80,0.00,,,0.00,VWS V14.01,2013-10-02 12:47:00,
2013-10-02 07:52:00,69.9,63.5,30.05,SW,216,0.0,0.0,80,0.00,,,0.00,VWS V14.01,2013-10-02 12:52:00,
2013-10-02 07:57:00,69.9,63.5,30.05,SW,216,0.0,0.0,80,0.00,,,0.00,VWS V14.01,2013-10-02 12:57:00,
2013-10-02 08:02:00,70.0,63.5,30.04,SW,216,0.0,0.0,80,0.00,,,0.00,VWS V14.01,2013-10-02 13:02:00,
2013-10-02 08:07:00,70.0,63.5,30.04,SW,216,0.0,0.0,80,0.00,,,0.00,VWS V14.01,2013-10-02 13:07:00,
2013-10-02 08:12:00,70.1,63.7,30.04,SW,216,0.0,0.0,80,0.00,,,0.00,VWS V14.01,2013-10-02 13:12:00,
2013-10-02 08:17:00,70.1,63.7,30.04,SW,216,0.0,0.0,80,0.00,,,0.00,VWS V14.01,2013-10-02 13:17:00,
2013-10-02 08:22:00,70.1,63.7,30.05,SW,216,0.0,0.0,80,0.00,,,0.00,VWS V14.01,2013-10-02 13:22:00,
2013-10-02 08:27:00,70.2,63.8,30.05,SW,216,0.0,2.0,80,0.00,,,0.00,VWS V14.01,2013-10-02 13:27:00,
2013-10-02 08:32:00,70.3,63.8,30.05,SW,216,0.0,0.0,80,0.00,,,0.00,VWS V14.01,2013-10-02 13:32:00,
2013-10-02 08:37:00,70.3,63.8,30.05,SW,216,0.0,0.0,80,0.00,,,0.00,VWS V14.01,2013-10-02 13:37:00,
2013-10-02 08:42:00,70.4,63.9,30.05,SW,216,0.0,0.0,80,0.00,,,0.00,VWS V14.01,2013-10-02 13:42:00,
2013-10-02 08:47:00,70.5,64.0,30.05,SW,216,0.0,1.0,80,0.00,,,0.00,VWS V14.01,2013-10-02 13:47:00,
2013-10-02 08:52:00,70.6,64.1,30.06,SW,216,0.0,0.0,80,0.00,,,0.00,VWS V14.01,2013-10-02 13:52:00,
2013-10-02 08:57:00,70.6,64.1,30.06,SW,216,0.0,0.0,80,0.00,,,0.00,VWS V14.01,2013-10-02 13:57:00,
2013-10-02 09:02:00,70.6,64.1,30.06,SW,216,0.0,0.0,80,0.00,,,0.00,VWS V14.01,2013-10-02 14:02:00,
2013-10-02 09:07:00,70.7,64.2,30.05,SW,216,0.0,0.0,80,0.00,,,0.00,VWS V14.01,2013-10-02 14:07:00,
2013-10-02 09:12:00,70.7,64.2,30.05,SW,216,0.0,0.0,80,0.00,,,0.00,VWS V14.01,2013-10-02 14:12:00,
2013-10-02 09:17:00,70.7,64.2,30.05,SW,216,0.0,1.0,80,0.00,,,0.00,VWS V14.01,2013-10-02 14:17:00,
2013-10-02 09:22:00,70.9,64.4,30.05,SSW,193,0.0,0.0,80,0.00,,,0.00,VWS V14.01,2013-10-02 14:22:00,
2013-10-02 09:27:00,71.1,64.6,30.05,SSW,193,0.0,1.0,80,0.00,,,0.00,VWS V14.01,2013-10-02 14:27:00,
2013-10-02 09:32:00,71.4,64.9,30.06,SSW,194,0.0,0.0,80,0.00,,,0.00,VWS V14.01,2013-10-02 14:32:00,
2013-10-02 09:37:00,71.4,64.9,30.05,SSW,194,0.0,1.0,80,0.00,,,0.00,VWS V14.01,2013-10-02 14:37:00,
2013-10-02 09:42:00,71.2,64.7,30.06,SSW,207,0.0,0.0,80,0.00,,,0.00,VWS V14.01,2013-10-02 14:42:00,
2013-10-02 09:47:00,71.3,64.8,30.06,SSW,207,0.0,1.0,80,0.00,,,0.00,VWS V14.01,2013-10-02 14:47:00,
2013-10-02 09:52:00,71.3,64.8,30.05,SSW,207,0.0,1.0,80,0.00,,,0.00,VWS V14.01,2013-10-02 14:52:00,
2013-10-02 09:57:00,71.4,64.9,30.06,SSW,207,0.0,3.0,80,0.00,,,0.00,VWS V14.01,2013-10-02 14:57:00,
2013-10-02 10:02:00,71.4,64.9,30.06,SSW,211,0.0,0.0,80,0.00,,,0.00,VWS V14.01,2013-10-02 15:02:00,
2013-10-02 10:07:00,71.6,65.1,30.05,SSW,211,0.0,1.0,80,0.00,,,0.00,VWS V14.01,2013-10-02 15:07:00,
2013-10-02 10:12:00,71.7,65.2,30.05,SSW,211,0.0,1.0,80,0.00,,,0.00,VWS V14.01,2013-10-02 15:12:00,
2013-10-02 10:17:00,71.9,65.4,30.05,SSW,211,0.0,1.0,80,0.00,,,0.00,VWS V14.01,2013-10-02 15:17:00,
2013-10-02 10:22:00,72.4,66.2,30.05,SW,221,0.0,3.0,81,0.00,,,0.00,VWS V14.01,2013-10-02 15:22:00,
2013-10-02 10:27:00,73.2,67.4,30.04,SW,221,0.0,3.0,82,0.00,,,0.00,VWS V14.01,2013-10-02 15:27:00,
2013-10-02 10:32:00,73.8,68.7,30.04,SW,221,0.0,0.0,84,0.00,,,0.00,VWS V14.01,2013-10-02 15:32:00,
2013-10-02 10:37:00,74.3,69.5,30.04,SW,221,0.0,1.0,85,0.00,,,0.00,VWS V14.01,2013-10-02 15:37:00,
2013-10-02 10:43:00,74.4,69.6,30.04,SSW,213,1.0,3.0,85,0.00,,,0.00,VWS V14.01,2013-10-02 15:43:00,
2013-10-02 10:48:00,74.4,69.6,30.04,SSW,213,0.0,3.0,85,0.00,,,0.00,VWS V14.01,2013-10-02 15:48:00,
2013-10-02 10:53:00,74.5,69.7,30.04,SSW,213,0.0,0.0,85,0.00,,,0.00,VWS V14.01,2013-10-02 15:53:00,
2013-10-02 10:58:00,74.6,69.8,30.04,SW,215,0.0,1.0,85,0.00,,,0.00,VWS V14.01,2013-10-02 15:58:00,
2013-10-02 11:03:00,74.8,70.0,30.04,South,175,1.0,1.0,85,0.00,,,0.00,VWS V14.01,2013-10-02 16:03:00,
2013-10-02 11:08:00,75.0,70.2,30.04,South,173,0.0,1.0,85,0.00,,,0.00,VWS V14.01,2013-10-02 16:08:00,
2013-10-02 11:13:00,75.1,69.9,30.04,South,173,0.0,0.0,84,0.00,,,0.00,VWS V14.01,2013-10-02 16:13:00,
2013-10-02 11:18:00,75.2,70.0,30.04,South,173,0.0,0.0,84,0.00,,,0.00,VWS V14.01,2013-10-02 16:18:00,
2013-10-02 11:23:00,75.2,70.0,30.04,South,173,0.0,0.0,84,0.00,,,0.00,VWS V14.01,2013-10-02 16:23:00,
2013-10-02 11:28:00,75.4,70.2,30.04,South,173,0.0,0.0,84,0.00,,,0.00,VWS V14.01,2013-10-02 16:28:00,
2013-10-02 11:33:00,75.4,70.2,30.04,South,173,0.0,0.0,84,0.00,,,0.00,VWS V14.01,2013-10-02 16:33:00,
2013-10-02 11:38:00,75.6,70.4,30.04,South,173,0.0,1.0,84,0.00,,,0.00,VWS V14.01,2013-10-02 16:38:00,
2013-10-02 11:43:00,75.6,70.4,30.04,South,173,0.0,0.0,84,0.00,,,0.00,VWS V14.01,2013-10-02 16:43:00,
2013-10-02 11:48:00,75.7,70.5,30.04,South,173,0.0,0.0,84,0.00,,,0.00,VWS V14.01,2013-10-02 16:48:00,
2013-10-02 11:53:00,75.9,70.4,30.04,SSE,150,0.0,1.0,83,0.00,,,0.00,VWS V14.01,2013-10-02 16:53:00,
2013-10-02 11:58:00,76.2,70.7,30.04,SSE,148,0.0,4.0,83,0.00,,,0.00,VWS V14.01,2013-10-02 16:58:00,
2013-10-02 12:03:00,76.4,70.9,30.03,SSE,148,0.0,1.0,83,0.00,,,0.00,VWS V14.01,2013-10-02 17:03:00,
2013-10-02 12:08:00,76.6,71.1,30.03,South,180,0.0,3.0,83,0.00,,,0.00,VWS V14.01,2013-10-02 17:08:00,
2013-10-02 12:13:00,76.7,70.8,30.03,South,181,0.0,1.0,82,0.00,,,0.00,VWS V14.01,2013-10-02 17:13:00,
2013-10-02 12:18:00,76.7,70.8,30.03,South,181,0.0,1.0,82,0.00,,,0.00,VWS V14.01,2013-10-02 17:18:00,
2013-10-02 12:23:00,76.9,71.0,30.03,South,181,0.0,0.0,82,0.00,,,0.00,VWS V14.01,2013-10-02 17:23:00,
2013-10-02 12:28:00,77.1,71.2,30.03,SE,128,0.0,4.0,82,0.00,,,0.00,VWS V14.01,2013-10-02 17:28:00,
2013-10-02 12:33:00,77.3,71.4,30.03,SE,128,0.0,1.0,82,0.00,,,0.00,VWS V14.01,2013-10-02 17:33:00,
2013-10-02 12:38:00,77.5,71.2,30.02,SE,141,0.0,5.0,81,0.00,,,0.00,VWS V14.01,2013-10-02 17:38:00,
2013-10-02 12:43:00,77.7,71.0,30.02,East,85,0.0,4.0,80,0.00,,,0.00,VWS V14.01,2013-10-02 17:43:00,
2013-10-02 12:48:00,77.7,71.0,30.02,East,86,2.0,4.0,80,0.00,,,0.00,VWS V14.01,2013-10-02 17:48:00,
2013-10-02 12:53:00,77.9,71.2,30.02,SSE,155,1.0,2.0,80,0.00,,,0.00,VWS V14.01,2013-10-02 17:53:00,
2013-10-02 12:58:00,78.5,71.4,30.01,SSE,154,0.0,2.0,79,0.00,,,0.00,VWS V14.01,2013-10-02 17:58:00,
2013-10-02 13:03:00,79.0,71.6,30.02,SSE,148,0.0,4.0,78,0.00,,,0.00,VWS V14.01,2013-10-02 18:03:00,
2013-10-02 13:08:00,79.3,71.8,30.01,SSE,148,0.0,4.0,78,0.00,,,0.00,VWS V14.01,2013-10-02 18:08:00,
2013-10-02 13:13:00,80.2,72.3,30.01,SE,143,5.0,5.0,77,0.00,,,0.00,VWS V14.01,2013-10-02 18:13:00,
2013-10-02 13:18:00,79.8,71.6,30.01,NE,47,1.0,5.0,76,0.00,,,0.00,VWS V14.01,2013-10-02 18:18:00,
2013-10-02 13:23:00,79.2,71.8,30.00,East,86,2.0,3.0,78,0.00,,,0.00,VWS V14.01,2013-10-02 18:23:00,
2013-10-02 13:28:00,79.3,71.5,30.00,SSE,147,1.0,3.0,77,0.00,,,0.00,VWS V14.01,2013-10-02 18:28:00,
2013-10-02 13:33:00,79.4,71.2,30.00,SE,137,0.0,1.0,76,0.00,,,0.00,VWS V14.01,2013-10-02 18:33:00,
2013-10-02 13:38:00,79.8,71.6,29.99,ESE,117,2.0,6.0,76,0.00,,,0.00,VWS V14.01,2013-10-02 18:38:00,
2013-10-02 13:43:00,80.1,71.9,29.99,ESE,111,0.0,0.0,76,0.00,,,0.00,VWS V14.01,2013-10-02 18:43:00,
2013-10-02 13:48:00,79.9,71.7,29.99,SE,127,0.0,7.0,76,0.00,,,0.00,VWS V14.01,2013-10-02 18:48:00,
2013-10-02 13:53:00,79.6,71.4,29.99,South,178,0.0,4.0,76,0.00,,,0.00,VWS V14.01,2013-10-02 18:53:00,
2013-10-02 13:58:00,79.4,71.6,29.98,ENE,67,0.0,5.0,77,0.00,,,0.00,VWS V14.01,2013-10-02 18:58:00,
2013-10-02 14:03:00,80.1,71.9,29.98,ESE,108,0.0,2.0,76,0.00,,,0.00,VWS V14.01,2013-10-02 19:03:00,
2013-10-02 14:08:00,80.3,71.7,29.97,SE,126,0.0,5.0,75,0.00,,,0.00,VWS V14.01,2013-10-02 19:08:00,
2013-10-02 14:13:00,79.9,71.7,29.97,ESE,121,0.0,2.0,76,0.00,,,0.00,VWS V14.01,2013-10-02 19:13:00,
2013-10-02 14:18:00,80.6,71.9,29.97,ENE,71,4.0,4.0,75,0.00,,,0.00,VWS V14.01,2013-10-02 19:18:00,
2013-10-02 14:23:00,80.7,71.7,29.97,South,177,0.0,5.0,74,0.00,,,0.00,VWS V14.01,2013-10-02 19:23:00,
2013-10-02 14:28:00,81.2,72.1,29.97,South,171,0.0,5.0,74,0.00,,,0.00,VWS V14.01,2013-10-02 19:28:00,
2013-10-02 14:33:00,81.7,72.2,29.97,East,92,0.0,4.0,73,0.00,,,0.00,VWS V14.01,2013-10-02 19:33:00,
2013-10-02 14:38:00,81.5,72.0,29.97,ENE,58,3.0,5.0,73,0.00,,,0.00,VWS V14.01,2013-10-02 19:38:00,
2013-10-02 14:43:00,81.9,72.4,29.97,NNE,33,2.0,4.0,73,0.00,,,0.00,VWS V14.01,2013-10-02 19:43:00,
2013-10-02 14:48:00,81.7,72.6,29.97,ESE,108,0.0,7.0,74,0.00,,,0.00,VWS V14.01,2013-10-02 19:48:00,
2013-10-02 14:53:00,81.4,72.3,29.97,ENE,62,0.0,4.0,74,0.00,,,0.00,VWS V14.01,2013-10-02 19:53:00,
2013-10-02 14:58:00,81.0,71.9,29.97,ESE,118,1.0,4.0,74,0.00,,,0.00,VWS V14.01,2013-10-02 19:58:00,
2013-10-02 15:03:00,80.5,71.8,29.97,ESE,115,0.0,1.0,75,0.00,,,0.00,VWS V14.01,2013-10-02 20:03:00,
2013-10-02 15:08:00,80.2,71.9,29.97,East,87,0.0,3.0,76,0.00,,,0.00,VWS V14.01,2013-10-02 20:08:00,
2013-10-02 15:13:00,80.0,71.8,29.97,ENE,69,0.0,0.0,76,0.00,,,0.00,VWS V14.01,2013-10-02 20:13:00,
2013-10-02 15:18:00,79.8,71.6,29.97,East,86,0.0,1.0,76,0.00,,,0.00,VWS V14.01,2013-10-02 20:18:00,
2013-10-02 15:23:00,79.7,71.5,29.97,ESE,112,4.0,4.0,76,0.00,,,0.00,VWS V14.01,2013-10-02 20:23:00,
2013-10-02 15:28:00,79.5,71.7,29.97,ESE,111,0.0,4.0,77,0.00,,,0.00,VWS V14.01,2013-10-02 20:28:00,
2013-10-02 15:33:00,79.4,71.9,29.97,ESE,111,0.0,0.0,78,0.00,,,0.00,VWS V14.01,2013-10-02 20:33:00,
2013-10-02 15:38:00,79.2,71.8,29.97,ESE,111,0.0,1.0,78,0.00,,,0.00,VWS V14.01,2013-10-02 20:38:00,
2013-10-02 15:43:00,78.9,71.5,29.97,ESE,111,0.0,0.0,78,0.00,,,0.00,VWS V14.01,2013-10-02 20:43:00,
2013-10-02 15:48:00,78.8,71.7,29.98,ESE,111,0.0,0.0,79,0.00,,,0.00,VWS V14.01,2013-10-02 20:48:00,
2013-10-02 15:58:00,78.5,71.8,29.98,ESE,111,0.0,0.0,80,0.00,,,0.00,VWS V14.01,2013-10-02 20:58:00,
2013-10-02 16:03:00,78.3,71.3,29.99,SSW,211,10.0,10.0,79,0.00,,,0.00,VWS V14.01,2013-10-02 21:03:00,
2013-10-02 16:08:00,76.7,68.2,29.99,SW,225,12.0,18.0,75,0.00,,,0.00,VWS V14.01,2013-10-02 21:08:00,
2013-10-02 16:13:00,75.3,68.3,29.99,SW,222,1.0,8.0,79,0.02,,,0.02,VWS V14.01,2013-10-02 21:13:00,
2013-10-02 16:18:00,74.0,67.8,29.99,SSW,211,5.0,8.0,81,0.06,,,0.06,VWS V14.01,2013-10-02 21:18:00,
2013-10-02 16:23:00,72.8,67.3,29.99,SSW,211,0.0,1.0,83,0.08,,,0.08,VWS V14.01,2013-10-02 21:23:00,
2013-10-02 16:28:00,72.0,66.9,29.99,South,182,0.0,6.0,84,0.09,,,0.09,VWS V14.01,2013-10-02 21:28:00,
2013-10-02 16:33:00,71.5,66.8,29.99,SW,224,1.0,1.0,85,0.10,,,0.10,VWS V14.01,2013-10-02 21:33:00,
2013-10-02 16:38:00,71.2,66.5,29.98,SW,223,0.0,1.0,85,0.11,,,0.11,VWS V14.01,2013-10-02 21:38:00,
2013-10-02 16:43:00,71.2,66.5,29.97,SW,223,0.0,0.0,85,0.11,,-RA,0.11,VWS V14.01,2013-10-02 21:43:00,
2013-10-02 16:48:00,71.2,66.5,29.97,SW,223,0.0,0.0,85,0.11,,-RA,0.11,VWS V14.01,2013-10-02 21:48:00,
2013-10-02 16:53:00,71.2,66.1,29.97,SE,139,0.0,0.0,84,0.11,,,0.11,VWS V14.01,2013-10-02 21:53:00,
2013-10-02 16:58:00,71.2,66.1,29.97,SE,139,0.0,0.0,84,0.12,,,0.12,VWS V14.01,2013-10-02 21:58:00,
2013-10-02 17:03:00,71.3,66.2,29.97,SE,139,0.0,0.0,84,0.12,,,0.12,VWS V14.01,2013-10-02 22:03:00,
2013-10-02 17:08:00,71.3,66.2,29.97,SE,139,0.0,0.0,84,0.12,,,0.12,VWS V14.01,2013-10-02 22:08:00,
2013-10-02 17:13:00,71.5,66.1,29.97,SE,139,0.0,0.0,83,0.12,,,0.12,VWS V14.01,2013-10-02 22:13:00,
2013-10-02 17:18:00,71.6,66.2,29.96,SE,139,0.0,0.0,83,0.12,,,0.12,VWS V14.01,2013-10-02 22:18:00,
2013-10-02 17:23:00,71.7,66.3,29.96,SE,139,0.0,0.0,83,0.04,,,0.12,VWS V14.01,2013-10-02 22:23:00,
2013-10-02 17:28:00,71.6,66.2,29.96,SE,139,0.0,1.0,83,0.05,,,0.13,VWS V14.01,2013-10-02 22:28:00,
2013-10-02 17:33:00,71.6,66.2,29.96,SE,139,0.0,0.0,83,0.03,,,0.13,VWS V14.01,2013-10-02 22:33:00,
2013-10-02 17:38:00,71.6,66.2,29.96,SE,139,0.0,0.0,83,0.03,,,0.13,VWS V14.01,2013-10-02 22:38:00,
2013-10-02 17:43:00,71.7,65.9,29.96,SE,139,0.0,0.0,82,0.02,,RA,0.13,VWS V14.01,2013-10-02 22:43:00,
2013-10-02 17:48:00,71.7,65.9,29.96,SE,139,0.0,1.0,82,0.02,,RA,0.13,VWS V14.01,2013-10-02 22:48:00,
2013-10-02 17:53:00,71.6,65.8,29.95,SE,139,0.0,1.0,82,0.02,,-RA,0.13,VWS V14.01,2013-10-02 22:53:00,
2013-10-02 17:58:00,71.6,65.8,29.96,SE,138,0.0,4.0,82,0.02,,-RA,0.13,VWS V14.01,2013-10-02 22:58:00,
2013-10-02 18:03:00,71.6,65.8,29.95,SE,138,0.0,0.0,82,0.01,,-RA,0.13,VWS V14.01,2013-10-02 23:03:00,
2013-10-02 18:08:00,71.5,65.7,29.95,SE,138,0.0,1.0,82,0.01,,-RA,0.13,VWS V14.01,2013-10-02 23:08:00,
2013-10-02 18:13:00,71.4,65.6,29.96,SE,138,0.0,1.0,82,0.01,,-RA,0.13,VWS V14.01,2013-10-02 23:13:00,
2013-10-02 18:18:00,71.3,65.5,29.96,SE,138,0.0,1.0,82,0.01,,-RA,0.13,VWS V14.01,2013-10-02 23:18:00,
2013-10-02 18:23:00,71.3,65.5,29.96,SE,138,0.0,0.0,82,0.01,,-RA,0.13,VWS V14.01,2013-10-02 23:23:00,
2013-10-02 18:28:00,71.2,65.4,29.96,SE,138,0.0,0.0,82,0.01,,-RA,0.13,VWS V14.01,2013-10-02 23:28:00,
2013-10-02 18:34:00,71.2,65.4,29.96,SE,138,0.0,0.0,82,0.00,,-RA,0.13,VWS V14.01,2013-10-02 23:34:00,
2013-10-02 18:39:00,71.1,65.3,29.96,SE,138,0.0,0.0,82,0.00,,-RA,0.13,VWS V14.01,2013-10-02 23:39:00,
2013-10-02 18:44:00,71.1,65.3,29.96,SE,138,0.0,0.0,82,0.00,,,0.13,VWS V14.01,2013-10-02 23:44:00,
2013-10-02 18:49:00,71.0,65.2,29.96,SE,138,0.0,0.0,82,0.00,,,0.13,VWS V14.01,2013-10-02 23:49:00,
2013-10-02 18:54:00,71.0,65.2,29.97,SE,138,0.0,0.0,82,0.00,,,0.13,VWS V14.01,2013-10-02 23:54:00,
2013-10-02 18:59:00,70.9,65.1,29.97,SE,138,0.0,0.0,82,0.00,,,0.13,VWS V14.01,2013-10-02 23:59:00,
2013-10-02 19:04:00,70.8,65.0,29.97,SE,138,0.0,0.0,82,0.00,,,0.13,VWS V14.01,2013-10-03 00:04:00,
2013-10-02 19:09:00,70.7,64.9,29.97,SE,138,0.0,0.0,82,0.00,,,0.13,VWS V14.01,2013-10-03 00:09:00,
2013-10-02 19:14:00,70.6,64.8,29.97,SE,138,0.0,0.0,82,0.00,,,0.13,VWS V14.01,2013-10-03 00:14:00,
2013-10-02 19:19:00,70.6,64.8,29.97,SE,138,0.0,0.0,82,0.00,,,0.13,VWS V14.01,2013-10-03 00:19:00,
2013-10-02 19:24:00,70.5,64.8,29.97,SE,138,0.0,0.0,82,0.00,,,0.13,VWS V14.01,2013-10-03 00:24:00,
2013-10-02 19:29:00,70.4,64.7,29.97,SE,138,0.0,0.0,82,0.00,,,0.13,VWS V14.01,2013-10-03 00:29:00,
2013-10-02 19:34:00,70.3,64.2,29.97,SE,138,0.0,0.0,81,0.00,,,0.13,VWS V14.01,2013-10-03 00:34:00,
2013-10-02 19:39:00,70.3,64.2,29.98,SE,138,0.0,0.0,81,0.00,,,0.13,VWS V14.01,2013-10-03 00:39:00,
2013-10-02 19:44:00,70.3,64.2,29.97,SE,138,0.0,0.0,81,0.00,,,0.13,VWS V14.01,2013-10-03 00:44:00,
2013-10-02 19:49:00,70.2,64.1,29.97,SE,138,0.0,0.0,81,0.00,,,0.13,VWS V14.01,2013-10-03 00:49:00,
2013-10-02 19:54:00,70.2,64.1,29.97,SE,138,0.0,0.0,81,0.00,,,0.13,VWS V14.01,2013-10-03 00:54:00,
2013-10-02 19:59:00,70.2,64.1,29.97,SE,138,0.0,0.0,81,0.00,,,0.13,VWS V14.01,2013-10-03 00:59:00,
2013-10-02 20:04:00,70.2,64.1,29.97,SE,138,0.0,0.0,81,0.00,,,0.13,VWS V14.01,2013-10-03 01:04:00,
2013-10-02 20:09:00,70.2,64.1,29.97,SE,138,0.0,0.0,81,0.00,,,0.13,VWS V14.01,2013-10-03 01:09:00,
2013-10-02 20:14:00,70.2,64.1,29.97,SE,138,0.0,1.0,81,0.00,,,0.13,VWS V14.01,2013-10-03 01:14:00,
2013-10-02 20:19:00,70.2,64.1,29.97,SE,138,0.0,1.0,81,0.00,,,0.13,VWS V14.01,2013-10-03 01:19:00,
2013-10-02 20:24:00,70.1,64.0,29.97,SE,138,0.0,0.0,81,0.00,,,0.13,VWS V14.01,2013-10-03 01:24:00,
2013-10-02 20:29:00,70.1,64.0,29.98,SE,138,0.0,1.0,81,0.00,,,0.13,VWS V14.01,2013-10-03 01:29:00,
2013-10-02 20:34:00,70.0,63.9,29.98,SE,138,0.0,0.0,81,0.00,,,0.13,VWS V14.01,2013-10-03 01:34:00,
2013-10-02 20:39:00,70.0,63.9,29.98,SE,138,0.0,1.0,81,0.00,,,0.13,VWS V14.01,2013-10-03 01:39:00,
2013-10-02 20:44:00,70.0,63.9,29.98,SE,138,0.0,0.0,81,0.00,,,0.13,VWS V14.01,2013-10-03 01:44:00,
2013-10-02 20:49:00,70.0,63.9,29.98,SE,138,0.0,0.0,81,0.00,,,0.13,VWS V14.01,2013-10-03 01:49:00,
2013-10-02 20:54:00,70.1,64.0,29.98,SE,138,0.0,1.0,81,0.00,,,0.13,VWS V14.01,2013-10-03 01:54:00,
2013-10-02 20:59:00,70.1,64.0,29.99,SE,138,0.0,1.0,81,0.00,,,0.13,VWS V14.01,2013-10-03 01:59:00,
2013-10-02 21:04:00,70.1,64.0,29.99,SE,138,0.0,0.0,81,0.00,,,0.13,VWS V14.01,2013-10-03 02:04:00,
2013-10-02 21:09:00,70.1,64.0,29.99,SE,138,0.0,2.0,81,0.00,,,0.13,VWS V14.01,2013-10-03 02:09:00,
2013-10-02 21:14:00,70.1,64.0,29.99,SE,138,0.0,0.0,81,0.00,,,0.13,VWS V14.01,2013-10-03 02:14:00,
2013-10-02 21:19:00,70.1,64.0,29.99,SE,138,0.0,1.0,81,0.00,,,0.13,VWS V14.01,2013-10-03 02:19:00,
2013-10-02 21:24:00,70.1,64.0,29.99,SE,138,0.0,0.0,81,0.00,,,0.13,VWS V14.01,2013-10-03 02:24:00,
2013-10-02 21:29:00,70.1,64.0,29.98,SE,138,0.0,0.0,81,0.00,,,0.13,VWS V14.01,2013-10-03 02:29:00,
2013-10-02 21:34:00,70.1,64.0,29.99,SE,138,0.0,0.0,81,0.00,,,0.13,VWS V14.01,2013-10-03 02:34:00,
2013-10-02 21:39:00,70.1,64.0,29.99,SE,138,0.0,2.0,81,0.00,,,0.13,VWS V14.01,2013-10-03 02:39:00,
2013-10-02 21:44:00,70.1,63.7,29.99,SE,138,0.0,2.0,80,0.00,,,0.13,VWS V14.01,2013-10-03 02:44:00,
2013-10-02 21:49:00,70.0,63.5,29.99,SE,138,0.0,2.0,80,0.00,,,0.13,VWS V14.01,2013-10-03 02:49:00,
2013-10-02 21:54:00,70.0,63.9,29.99,South,169,0.0,0.0,81,0.00,,,0.13,VWS V14.01,2013-10-03 02:54:00,
2013-10-02 21:59:00,69.9,63.5,29.98,South,169,0.0,4.0,80,0.00,,,0.13,VWS V14.01,2013-10-03 02:59:00,
2013-10-02 22:04:00,69.9,63.5,29.99,South,169,0.0,1.0,80,0.00,,,0.13,VWS V14.01,2013-10-03 03:04:00,
2013-10-02 22:09:00,69.9,63.8,29.98,South,180,0.0,3.0,81,0.00,,,0.13,VWS V14.01,2013-10-03 03:09:00,
2013-10-02 22:14:00,69.8,63.7,29.98,South,180,0.0,0.0,81,0.00,,,0.13,VWS V14.01,2013-10-03 03:14:00,
2013-10-02 22:19:00,69.8,63.7,29.98,South,180,0.0,1.0,81,0.00,,,0.13,VWS V14.01,2013-10-03 03:19:00,
2013-10-02 22:24:00,69.7,63.6,29.98,South,180,0.0,0.0,81,0.00,,,0.13,VWS V14.01,2013-10-03 03:24:00,
2013-10-02 22:29:00,69.7,63.6,29.99,South,180,0.0,0.0,81,0.00,,,0.13,VWS V14.01,2013-10-03 03:29:00,
2013-10-02 22:34:00,69.7,63.6,29.98,South,180,0.0,1.0,81,0.00,,,0.13,VWS V14.01,2013-10-03 03:34:00,
2013-10-02 22:39:00,69.6,63.5,29.98,South,180,0.0,2.0,81,0.00,,,0.13,VWS V14.01,2013-10-03 03:39:00,
2013-10-02 22:44:00,69.6,63.5,29.98,South,180,0.0,0.0,81,0.00,,,0.13,VWS V14.01,2013-10-03 03:44:00,
2013-10-02 22:49:00,69.6,63.5,29.98,South,180,0.0,3.0,81,0.00,,,0.13,VWS V14.01,2013-10-03 03:49:00,
2013-10-02 22:54:00,69.6,63.5,29.98,South,180,0.0,1.0,81,0.00,,,0.13,VWS V14.01,2013-10-03 03:54:00,
2013-10-02 22:59:00,69.5,63.4,29.98,South,180,0.0,1.0,81,0.00,,,0.13,VWS V14.01,2013-10-03 03:59:00,
2013-10-02 23:01:00,69.5,63.4,29.98,South,180,0.0,1.0,81,0.00,,,0.13,VWS V14.01,2013-10-03 04:01:00,
2013-10-02 23:04:00,69.4,63.3,29.98,South,180,0.0,1.0,81,0.00,,,0.13,VWS V14.01,2013-10-03 04:04:00,
2013-10-02 23:09:00,69.4,63.0,29.97,South,180,0.0,1.0,80,0.00,,,0.13,VWS V14.01,2013-10-03 04:09:00,
2013-10-02 23:11:00,69.4,63.0,29.98,South,180,0.0,1.0,80,0.00,,,0.13,VWS V14.01,2013-10-03 04:11:00,
2013-10-02 23:14:00,69.3,63.2,29.98,South,180,0.0,0.0,81,0.00,,,0.13,VWS V14.01,2013-10-03 04:14:00,
2013-10-02 23:19:00,69.3,63.2,29.98,South,180,0.0,2.0,81,0.00,,,0.13,VWS V14.01,2013-10-03 04:19:00,
2013-10-02 23:21:00,69.2,63.1,29.98,South,180,0.0,2.0,81,0.00,,,0.13,VWS V14.01,2013-10-03 04:21:00,
2013-10-02 23:29:00,69.1,63.0,29.98,South,180,0.0,3.0,81,0.00,,,0.13,VWS V14.01,2013-10-03 04:29:00,
2013-10-02 23:34:00,69.0,62.9,29.98,South,180,0.0,0.0,81,0.00,,,0.13,VWS V14.01,2013-10-03 04:34:00,
2013-10-02 23:39:00,69.0,62.9,29.97,South,180,0.0,0.0,81,0.00,,,0.13,VWS V14.01,2013-10-03 04:39:00,
2013-10-02 23:44:00,68.9,62.8,29.97,South,180,0.0,0.0,81,0.00,,,0.13,VWS V14.01,2013-10-03 04:44:00,
2013-10-02 23:49:00,68.8,62.7,29.98,South,180,0.0,1.0,81,0.00,,,0.13,VWS V14.01,2013-10-03 04:49:00,
2013-10-02 23:54:00,68.8,62.7,29.97,South,180,0.0,0.0,81,0.00,,,0.13,VWS V14.01,2013-10-03 04:54:00,
2013-10-02 23:59:00,68.8,62.7,29.97,South,180,0.0,1.0,81,0.00,,,0.13,VWS V14.01,2013-10-03 04:59:00,